{"data":{"norad_id":59164,"intl_designator":"2024-044N","name":"STARLINK-31309","alt_names":[],"object_type":"PAYLOAD","status":"ACTIVE","operator":null,"country":"US","launch_date":"2024-03-04","launch_site_code":"AFETR","launch_vehicle":null,"mission":null,"orbit_class":"UNKNOWN","rcs_meters":null,"size_class":null,"mass_kg":null,"dimensions":null,"purposes":["comms"],"wikipedia_slug":null,"has_3d_model":false,"image_url":null,"decayed_at":null,"tle_current":{"epoch":"2026-05-24T23:18:51.362784Z","epoch_age_seconds":84459,"freshness":"FRESH","line1":"1 59164U 24044N   26144.97142781  .00009047  00000+0  33785-3 0  9993","line2":"2 59164  43.0012  36.0760 0001397 249.9725 110.0976 15.27583360125267","mean_motion":15.2758336,"eccentricity":0.0001397,"inclination_deg":43.0012,"raan_deg":36.076,"arg_perigee_deg":249.9725,"mean_anomaly_deg":110.0976,"bstar":0.00033785,"rev_number":12526,"period_min":94.266541368976,"perigee_km":482.08052871725,"apogee_km":483.99754130143,"semimajor_km":6861.1760350093,"source":"CELESTRAK","updated_at":"2026-05-25T13:38:18.834915Z"}}}